Tracking 19477 objects as of 16-Jan-2019
HD Live streaming from Space Station
objects crossing your sky now

SSB

Track SSB now!
10-day predictions
SSB is classified as:


NORAD ID: 13845
Int'l Code: 1983-008F
Perigee: 383.7 km
Apogee: 1,741.9 km
Inclination: 63.3 °
Period: 106.3 minutes
Semi major axis: 7433 km
RCS: Unknown
Launch date: February 9, 1983
Source: United States (US)
Launch site: AIR FORCE WESTERN TEST RANGE (AFWTR)
aabbcc
Your satellite tracking list
Your tracking list is empty




NASA's NSSDC Master Catalog

Two Line Element Set (TLE):
1 13845U 83008F   18346.73918249 0.00000730  00000-0  53043-4 0    07
2 13845  63.2580 220.6238 0913571  81.9880 278.0120 13.54524727    00
Source of the keplerian elements: McCants